Weather History for KCNO - December, 2013

Change the Weather History Date:

Friday, December 27, 2013

  Actual Average Record
Temperature  
Mean Temperature 58 °F -  
Max Temperature 82 °F 65 °F 82 °F (2013)
Min Temperature 34 °F 36 °F 28 °F (2003)
Degree Days  
Heating Degree Days 7    
Growing Degree Days 8 (Base 50)    
Moisture  
Dew Point 26 °F    
Average Humidity 41    
Maximum Humidity 75    
Minimum Humidity 6    
Precipitation  
Precipitation 0.00 in - - ()
Sea Level Pressure  
Sea Level Pressure 30.12 in    
Wind  
Wind Speed 1 mph (NNE)    
Max Wind Speed 5 mph    
Max Gust Speed -    
Visibility 9 miles    
Events      
Averages and records for this station are not official NWS values.
T = Trace of Precipitation, MM = Missing Value Source: NWS Daily Summary

Daily Weather History Graph

Daily Weather History Graph

Search for Another Location

Airport or City:

Trip Planner

Search our weather history database for the weather conditions in past years. The results will help you decide how hot, cold, wet, or windy it might be!

Date:

Astronomy

Dec. 27, 2013 Rise Set
Actual Time 6:54 AM PST 4:49 PM PST
Civil Twilight 6:26 AM PST 5:16 PM PST
Nautical Twilight 5:55 AM PST 5:48 PM PST
Astronomical Twilight 5:25 AM PST 6:18 PM PST
Moon 1:40 AM PST (12/27) 12:55 PM PST (12/27)
Length of Visible Light 10h 49m
Length of Day
9h 54m
Waning Crescent, 27% of the Moon is Illuminated
Dec 27
Waning Crescent
Jan 1
New
Jan 7
First Quarter
Jan 15
Full
Jan 23
Last Quarter

Hourly Weather History & Observations

Time (PST) Temp. Windchill Dew Point Humidity Pressure Visibility Wind Dir Wind Speed Gust Speed Precip Events Conditions
12:53 AM 41.0 °F - 26.1 °F 55% 30.15 in 9.0 mi Calm Calm - N/A   Clear
1:53 AM 39.9 °F - 27.0 °F 60% 30.16 in 9.0 mi Calm Calm - N/A   Clear
2:53 AM 37.9 °F 34.4 °F 26.1 °F 62% 30.16 in 9.0 mi NE 4.6 mph - N/A   Clear
3:53 AM 41.0 °F - 26.1 °F 55% 30.15 in 9.0 mi Calm Calm - N/A   Clear
4:53 AM 34.0 °F - 27.0 °F 75% 30.16 in 8.0 mi Calm Calm - N/A   Clear
5:53 AM 37.0 °F - 25.0 °F 62% 30.16 in 8.0 mi Calm Calm - N/A   Clear
6:53 AM 34.0 °F 29.8 °F 27.0 °F 75% 30.16 in 10.0 mi North 4.6 mph - N/A   Partly Cloudy
7:53 AM 48.0 °F - 26.1 °F 42% 30.17 in 10.0 mi Calm Calm - N/A   Partly Cloudy
8:53 AM 55.0 °F - 28.0 °F 35% 30.17 in 10.0 mi NW 3.5 mph - N/A   Partly Cloudy
9:53 AM 66.9 °F - 28.0 °F 23% 30.17 in 10.0 mi North 3.5 mph - N/A   Partly Cloudy
10:53 AM 73.0 °F - 25.0 °F 17% 30.15 in 10.0 mi Calm Calm - N/A   Partly Cloudy
11:53 AM 78.1 °F - 17.1 °F 10% 30.11 in 10.0 mi ESE 4.6 mph - N/A   Scattered Clouds
12:53 PM 79.0 °F - 23.0 °F 13% 30.09 in 10.0 mi Calm Calm - N/A   Scattered Clouds
1:53 PM 81.0 °F - 15.1 °F 8% 30.07 in 10.0 mi Calm Calm - N/A   Scattered Clouds
2:53 PM 82.0 °F - 7.0 °F 6% 30.06 in 10.0 mi Calm Calm - N/A   Scattered Clouds
3:53 PM 79.0 °F - 10.9 °F 8% 30.05 in 10.0 mi Calm Calm - N/A   Scattered Clouds
4:53 PM 70.0 °F - 26.1 °F 19% 30.06 in 10.0 mi NNW 3.5 mph - N/A   Mostly Cloudy
5:53 PM 64.9 °F - 30.9 °F 28% 30.06 in 8.0 mi Calm Calm - N/A   Clear
6:53 PM 55.0 °F - 35.1 °F 47% 30.09 in 10.0 mi Calm Calm - N/A   Clear
7:53 PM 55.9 °F - 32.0 °F 40% 30.09 in 8.0 mi Calm Calm - N/A   Clear
8:53 PM 50.0 °F - 39.0 °F 66% 30.09 in 8.0 mi ENE 3.5 mph - N/A   Clear
9:53 PM 51.1 °F - 35.1 °F 54% 30.09 in 8.0 mi North 3.5 mph - N/A   Clear
10:53 PM 48.9 °F - 35.1 °F 59% 30.09 in 8.0 mi Calm Calm - N/A   Clear
11:53 PM 48.0 °F - 34.0 °F 58% 30.07 in 7.0 mi Calm Calm - N/A   Clear